Theta_e
338 338 338 334 329 324 317 324 332 334 334 334 334 335 336 336 335 335 333 335 337 336 336 335 334 335 334 333 332 331 332 332 331 331 331 332 332 332 332 333 333 333 333 333 334 334 335 336 337 335 334 334 334 333 332 332 332 332 331 330 330 330 331 332 333 333 333 334 334 333 334 333 331 330 331 330 331 331 331 332 332 333 333 333 333
338 338 338 333 325 319 319 329 333 334 334 333 332 333 334 334 336 337 335 333 334 334 332 331 330 332 333 332 332 331 331 331 331 331 331 331 331 331 332 332 332 332 332 332 332 333 333 334 335 334 333 333 333 332 332 332 332 332 332 331 331 331 331 331 331 331 332 333 334 334 334 334 333 332 332 332 332 331 332 332 332 333 333 333 333
337 338 337 330 322 318 322 331 334 334 333 332 332 332 333 334 336 336 335 333 333 332 330 328 328 331 332 332 332 332 331 331 330 330 331 331 331 331 331 332 331 332 332 332 332 332 332 332 333 333 333 333 332 332 332 332 333 332 332 332 332 331 331 331 331 331 332 332 333 333 334 333 333 332 332 332 332 332 332 332 332 333 332 332 332
337 338 336 328 320 318 323 329 332 333 332 332 332 332 332 332 334 333 332 332 333 333 331 331 331 331 331 332 333 332 333 332 331 330 330 330 331 331 331 331 331 331 331 331 331 331 331 331 331 332 332 332 332 332 332 332 332 332 333 333 332 332 331 331 331 331 331 331 331 332 332 332 332 331 331 331 331 331 331 332 332 332 332 331 331
337 337 334 325 320 319 319 324 328 331 331 331 332 332 331 331 331 332 331 332 334 333 332 332 332 331 331 334 334 333 334 333 332 330 331 330 331 331 331 331 331 331 331 331 331 331 331 330 330 331 332 331 332 331 332 332 332 333 333 332 332 331 331 330 330 330 331 331 331 331 330 330 330 329 329 330 330 330 330 331 330 331 331 331 330
337 337 333 324 320 319 318 320 324 329 330 332 331 332 333 333 333 333 332 332 334 333 332 331 330 331 333 334 333 333 333 333 332 331 330 330 330 330 331 331 331 331 331 331 331 331 330 330 330 330 332 331 331 332 332 332 332 332 332 332 331 331 330 330 330 330 330 330 329 329 328 329 329 328 328 328 329 330 330 330 330 330 330 330 329
336 336 330 324 320 318 320 318 322 328 331 332 331 332 333 333 334 334 333 333 334 332 331 331 331 331 332 334 333 332 331 332 332 331 329 329 330 329 330 330 331 331 330 330 330 330 330 330 330 330 331 331 331 331 331 332 331 331 332 331 331 330 330 330 330 329 328 328 327 327 327 327 329 329 328 328 329 329 329 330 330 330 329 329 328
335 335 329 324 320 318 319 316 321 329 332 331 332 334 333 332 333 334 335 334 333 332 332 332 331 331 331 333 333 332 331 332 331 330 329 329 330 330 329 329 330 329 329 329 330 329 329 329 329 330 330 331 330 330 330 331 331 330 331 330 331 330 330 329 328 327 327 326 326 326 326 327 327 328 328 328 328 329 329 328 328 328 327 327 327
335 334 329 325 320 318 317 315 322 329 331 332 332 333 333 332 332 334 335 335 333 333 333 331 330 330 331 332 332 331 331 332 331 329 329 331 331 331 330 329 329 329 329 329 329 330 329 329 329 330 330 330 330 329 329 330 330 329 329 329 329 329 329 328 327 327 326 326 326 326 326 326 325 325 326 326 328 328 327 327 327 326 326 326 326
336 333 329 326 321 318 317 317 321 327 331 332 331 333 333 331 332 334 335 335 333 333 333 331 329 328 330 330 330 330 331 331 330 329 330 331 331 331 331 330 330 330 330 330 330 330 329 329 329 330 330 330 329 329 329 329 330 329 329 329 328 328 328 327 327 326 326 326 326 326 326 326 326 326 326 326 326 326 326 327 327 326 325 325 326
335 333 330 327 322 319 317 317 320 326 331 332 332 333 334 331 331 334 334 335 334 333 332 330 329 329 329 329 330 330 331 331 330 329 330 331 330 330 331 331 330 329 330 330 330 329 329 329 328 330 330 329 328 328 328 329 329 329 329 329 328 328 327 327 327 326 326 326 326 326 325 325 327 328 327 326 326 326 326 326 326 326 326 326 325
335 334 331 327 323 320 318 317 319 324 329 332 332 333 334 332 331 334 334 335 333 332 332 330 329 329 329 330 329 329 330 330 330 329 329 329 329 330 330 330 330 329 329 330 329 328 328 328 328 330 329 328 328 328 328 328 328 329 328 328 328 328 327 327 326 325 324 324 324 322 319 321 326 328 327 326 326 326 326 326 326 325 325 325 324
336 334 332 328 324 321 319 317 317 321 327 330 332 333 334 332 331 333 334 333 331 330 331 330 329 328 328 328 328 328 328 329 329 329 329 329 328 329 329 329 329 329 329 329 329 329 328 328 328 329 328 327 327 328 328 328 328 328 328 328 328 327 327 327 326 325 324 324 322 315 314 321 326 326 325 325 325 325 325 325 325 324 324 323 323
336 334 333 330 326 323 320 318 317 318 323 327 330 332 333 333 331 332 333 332 330 329 330 330 329 329 328 328 328 327 327 328 328 328 329 329 328 328 328 328 328 328 329 328 328 328 328 327 327 327 327 327 327 327 328 328 327 327 327 327 327 327 326 326 326 325 324 323 321 314 315 323 326 326 324 323 323 323 323 323 322 322 322 321 321
337 334 334 332 329 325 321 319 318 317 319 323 328 330 332 333 333 332 332 331 329 327 328 329 329 329 328 328 328 328 328 328 328 329 328 327 327 327 327 327 327 328 327 327 327 328 328 327 327 327 327 327 326 327 328 328 327 327 326 326 326 326 325 325 325 324 323 320 319 314 317 323 325 325 324 323 322 322 322 322 321 321 321 320 319
338 335 335 333 331 327 323 320 320 319 317 320 324 327 329 330 332 331 328 326 323 322 323 327 329 329 328 328 328 328 328 328 328 329 327 326 327 327 326 326 326 327 326 326 326 326 327 326 325 325 326 326 326 327 328 327 327 326 325 325 325 325 325 325 324 323 322 318 313 311 316 323 324 324 323 323 321 321 321 321 321 320 320 319 319
339 336 335 334 333 330 326 322 321 320 319 319 320 323 324 325 327 326 324 322 320 318 318 325 329 328 328 327 327 328 327 327 328 328 326 325 326 324 323 324 326 327 326 326 325 326 327 326 324 324 325 325 326 327 327 326 326 326 324 324 323 324 324 324 323 322 321 318 314 313 316 321 323 323 322 322 321 320 320 320 320 319 319 319 319
339 336 335 335 333 332 329 325 322 321 321 320 319 319 319 320 321 321 321 320 319 318 316 322 327 327 328 327 326 327 327 327 328 327 325 324 323 321 320 321 323 325 325 325 325 326 325 324 323 323 324 324 325 326 326 326 325 325 324 323 323 323 323 323 323 322 321 320 319 319 319 321 323 323 322 321 321 320 320 319 319 319 318 318 318
339 336 335 335 334 334 331 328 324 323 322 321 320 319 319 318 319 319 319 319 318 317 316 318 322 325 326 327 326 326 327 326 327 327 325 324 322 321 321 319 318 320 324 325 325 323 322 322 323 323 324 324 324 325 325 326 325 324 324 324 324 323 324 323 323 323 322 321 320 320 321 322 322 322 322 321 321 320 320 319 319 318 317 317 317
338 336 335 335 335 334 333 331 328 325 323 322 322 321 320 319 319 319 318 319 318 317 315 314 318 322 324 325 325 325 325 325 325 325 325 324 324 323 322 320 318 318 322 324 322 320 320 321 321 322 322 323 323 324 325 325 325 324 324 324 324 324 324 324 323 323 323 321 320 320 321 322 322 322 321 321 320 320 319 318 318 318 317 316 316
338 337 336 335 335 334 334 333 331 329 326 324 323 322 322 321 321 320 320 319 319 317 314 311 313 318 320 323 324 324 324 324 325 325 325 325 325 324 322 320 319 318 319 320 320 319 318 318 319 319 319 319 320 322 324 325 325 324 324 324 324 324 324 324 324 323 323 321 320 320 320 320 321 321 321 321 320 320 319 318 318 317 317 317 316
338 337 337 335 335 335 334 333 333 332 329 327 324 323 323 322 322 321 322 320 320 319 315 310 310 313 316 320 323 323 323 323 324 324 325 325 324 323 322 320 319 319 318 318 318 318 318 318 318 318 317 317 317 318 320 323 324 324 324 325 324 325 324 324 324 324 323 322 321 320 320 320 321 321 321 320 320 319 319 319 318 317 317 316 316
338 338 337 336 335 334 335 334 333 333 332 330 327 325 323 323 322 322 322 322 321 320 318 313 309 311 313 315 319 320 321 322 323 324 324 324 324 323 322 320 319 319 318 317 317 318 317 318 320 320 320 320 319 318 318 320 323 324 324 324 324 324 324 324 324 324 324 323 322 321 321 321 322 321 321 320 320 319 318 318 317 317 316 316 316
338 338 338 337 335 335 335 334 334 333 333 332 330 328 325 324 323 323 322 322 322 321 321 317 311 310 312 314 316 318 319 320 321 321 322 323 323 323 322 321 320 319 319 318 317 317 317 318 320 321 321 321 321 321 319 319 321 323 323 323 323 323 324 324 324 324 324 324 323 322 321 321 322 322 321 320 320 319 318 318 317 317 316 315 315
337 337 338 338 337 336 336 336 335 334 334 334 333 331 328 326 324 324 323 323 323 322 322 320 316 314 316 318 319 322 322 323 322 321 321 321 321 321 321 321 320 320 320 319 317 317 317 317 319 320 320 320 321 321 321 320 321 322 323 323 323 323 323 323 324 324 324 324 324 323 321 321 322 321 321 320 320 319 318 318 317 317 316 315 315
337 337 337 338 338 338 338 337 336 335 335 335 335 333 331 329 327 326 325 324 323 323 322 322 320 318 321 323 324 325 325 326 326 324 323 322 321 320 320 319 320 320 320 320 318 318 318 317 317 318 319 320 320 320 321 321 321 321 322 322 322 323 323 323 323 323 323 323 324 323 322 322 321 321 321 321 320 319 319 318 317 317 316 315 315
337 336 336 337 338 339 338 338 338 336 335 336 336 336 334 332 331 329 328 327 326 325 325 323 321 321 324 326 326 326 326 327 327 326 325 323 320 319 322 321 321 322 321 322 321 320 320 318 317 317 317 319 319 319 319 320 321 321 321 322 322 322 323 322 323 323 323 323 323 323 323 322 322 321 322 321 321 320 319 318 317 317 317 316 316
336 335 336 337 337 339 339 338 338 337 336 336 337 337 336 335 333 332 331 331 330 330 328 325 323 322 324 327 327 327 327 327 327 327 326 324 320 318 324 324 323 324 323 323 323 322 322 321 320 318 317 318 318 318 318 319 320 321 321 321 322 322 323 322 322 322 323 323 323 323 323 323 322 322 322 322 322 321 320 320 319 319 319 318 317
336 335 335 336 336 337 338 338 338 337 337 337 337 338 337 337 335 334 333 333 333 333 331 328 326 324 324 327 328 328 328 328 328 327 326 325 321 319 325 327 325 325 325 325 324 324 323 322 322 321 320 318 318 318 317 317 318 319 321 322 322 322 322 322 322 322 322 322 322 323 322 322 322 322 322 321 321 322 322 321 321 320 320 320 319
336 335 334 335 336 336 337 339 338 337 337 337 338 338 338 337 336 335 334 334 334 333 332 330 329 327 326 326 327 327 328 329 328 327 325 324 323 322 325 327 327 326 326 326 325 325 324 323 323 322 322 321 320 319 318 318 317 318 319 320 321 321 321 321 322 322 322 322 322 322 322 322 322 322 322 321 321 321 322 322 322 322 321 320 320
335 335 333 334 335 335 336 338 339 338 337 337 338 338 338 337 336 335 335 335 335 334 333 332 331 330 329 327 327 327 328 329 328 328 326 325 326 325 325 327 327 327 327 326 326 326 325 325 324 323 323 322 322 321 320 320 319 319 319 319 320 320 319 320 321 321 322 322 322 322 322 322 322 322 322 321 321 321 321 322 322 322 321 321 321
335 335 333 333 334 334 335 336 338 338 338 337 337 338 338 337 336 335 335 335 335 335 334 333 332 331 331 329 328 328 328 328 328 328 327 327 327 327 327 327 327 326 327 327 327 326 326 325 325 325 324 323 323 322 321 321 321 321 321 321 320 320 319 319 319 320 321 321 321 322 322 322 322 322 321 321 321 321 321 322 322 322 321 322 322
334 334 333 333 333 333 333 334 336 337 338 338 338 338 337 337 336 335 335 335 336 336 334 333 333 332 331 331 330 329 328 328 328 328 328 327 327 327 327 327 327 326 327 327 327 326 326 326 326 325 324 323 323 323 322 322 322 321 321 321 321 321 321 320 320 320 320 320 320 321 321 322 322 321 321 321 321 321 321 322 322 321 321 322 322
333 333 333 334 333 333 333 333 334 335 337 338 338 338 337 337 336 336 336 336 336 336 335 334 333 333 332 332 331 330 329 329 328 328 328 328 327 327 327 327 327 327 327 327 327 326 326 326 326 325 324 324 323 323 322 322 321 321 321 321 321 321 320 320 320 320 320 320 320 320 321 321 321 321 321 321 321 321 321 321 321 321 321 321 321
333 333 334 333 333 333 333 333 333 334 335 337 337 337 337 337 337 337 336 336 336 336 336 335 335 334 334 333 332 331 331 330 329 328 328 328 328 327 327 327 327 327 327 327 326 326 326 326 326 325 324 324 323 323 322 322 321 321 321 321 321 321 320 320 320 320 319 320 320 320 320 320 321 321 321 320 320 320 321 321 321 321 321 321 321
334 334 334 333 333 333 333 333 332 333 334 335 336 336 336 336 337 337 336 336 336 336 336 336 335 335 334 334 333 333 332 331 330 330 328 328 328 328 328 327 327 327 327 327 326 326 326 326 325 325 325 324 324 323 323 322 321 321 321 322 322 322 321 321 321 321 321 320 320 320 320 320 320 320 320 320 320 320 320 320 320 320 320 320 320
334 335 334 334 334 333 333 333 332 333 333 334 335 336 335 335 336 337 336 336 335 336 336 335 335 335 335 334 334 334 333 332 331 331 330 329 328 328 328 328 327 327 327 327 326 326 326 326 325 325 325 325 324 324 324 324 323 323 322 322 323 322 322 322 321 321 321 321 320 320 320 320 320 320 320 320 319 319 319 319 319 319 320 320 320
334 335 335 335 335 334 334 334 333 333 333 334 335 335 335 334 335 336 336 336 335 335 335 335 335 335 335 334 334 334 333 333 332 332 331 330 329 328 328 328 328 328 328 327 327 327 326 326 326 326 326 325 325 325 325 325 324 323 323 323 323 322 322 322 321 321 321 321 321 320 320 320 320 320 320 319 319 319 318 318 318 318 318 318 319
334 334 335 335 335 334 334 334 334 333 333 333 334 334 335 335 335 335 335 335 335 335 334 334 334 334 334 334 334 334 333 333 332 332 332 330 330 328 328 328 328 328 328 328 327 327 327 326 327 326 326 326 325 325 326 325 323 323 322 322 322 322 322 322 321 321 320 320 321 320 320 320 319 319 319 319 319 318 318 318 317 317 317 316 317
334 334 335 335 335 335 334 334 334 334 334 333 334 334 334 335 335 335 335 335 335 335 335 334 334 334 334 334 334 333 334 333 332 332 332 332 331 330 329 328 327 327 327 327 327 327 326 325 326 327 326 326 326 326 325 324 323 322 322 322 322 322 322 322 321 321 321 321 322 321 320 319 319 319 319 319 319 318 318 317 317 317 316 316 316
334 334 334 334 336 335 334 335 334 334 334 334 334 334 334 335 335 335 335 335 336 335 335 335 335 334 334 333 334 334 334 333 333 333 333 332 331 330 329 329 328 328 328 327 327 327 327 327 327 327 326 326 326 326 325 324 322 321 321 321 321 322 322 322 321 321 321 321 321 320 320 319 319 319 319 319 319 318 318 318 318 317 317 316 316
333 334 334 334 335 335 335 335 335 335 334 334 334 334 334 334 335 335 335 335 335 334 335 335 334 334 333 332 332 333 333 333 333 333 333 332 331 330 330 330 329 328 328 328 328 328 328 328 328 327 327 327 326 326 325 323 321 320 319 318 319 321 321 320 320 320 320 320 319 319 319 320 320 320 319 319 319 319 319 318 318 317 316 316 316
332 333 334 334 334 334 335 335 335 335 335 334 335 334 334 333 333 333 334 334 333 333 333 334 334 333 332 331 331 332 332 332 333 332 332 332 332 331 331 330 329 328 327 327 327 328 327 328 328 328 328 326 325 326 325 323 321 320 318 318 318 318 320 319 318 319 319 319 319 319 319 319 319 319 318 318 318 318 318 317 317 316 316 315 315
331 332 333 334 334 334 334 335 335 335 335 334 334 334 334 333 332 332 332 332 332 333 334 334 334 333 332 331 331 331 331 331 331 331 331 331 331 332 331 331 331 329 328 328 328 328 329 329 327 327 327 325 324 325 325 324 323 321 319 319 316 316 321 319 316 318 319 319 319 318 318 318 318 317 317 317 317 316 316 316 315 315 315 315 314
330 331 332 333 334 334 334 335 334 334 334 334 334 334 334 333 333 333 332 332 333 333 333 333 333 333 332 332 331 331 331 331 331 331 331 330 331 331 331 331 331 329 329 329 329 329 330 329 327 326 325 324 325 325 325 324 323 322 320 320 318 318 322 319 316 319 318 317 318 318 317 317 316 316 316 316 316 315 315 315 315 314 314 314 314
330 330 331 332 332 334 334 334 334 334 334 334 334 334 333 334 333 333 332 331 332 332 332 332 332 331 331 331 331 331 330 331 331 330 330 330 331 331 331 330 330 330 329 329 330 330 330 329 327 326 325 325 325 325 325 324 322 322 321 321 321 321 320 318 318 319 317 317 317 316 316 316 315 315 315 315 315 315 314 314 313 313 313 313 313
329 329 330 330 331 332 333 333 333 334 334 334 333 333 333 333 333 333 332 331 330 330 330 331 331 331 331 331 330 330 330 330 330 330 330 330 330 330 329 329 329 329 328 328 328 329 329 329 328 327 326 326 325 324 324 324 322 321 322 321 320 320 319 317 317 317 317 316 315 315 315 315 315 315 314 314 314 314 313 313 312 312 312 312 312
327 329 329 330 330 331 331 332 332 333 333 334 333 333 333 333 333 333 332 331 330 329 329 330 330 330 330 330 330 330 330 329 329 328 328 327 328 328 328 329 329 328 327 327 327 327 327 327 327 326 325 324 325 324 324 323 322 321 321 320 319 319 319 317 316 315 315 314 314 315 315 315 314 314 313 313 313 312 312 312 312 312 312 312 311
326 328 328 329 329 329 330 330 331 332 332 333 333 333 333 333 332 332 331 331 330 329 329 329 329 329 329 329 329 329 328 327 327 326 325 325 326 328 328 329 328 328 328 327 325 325 325 324 324 324 322 322 323 323 322 322 321 320 320 319 319 318 318 317 316 314 312 313 314 314 313 313 313 312 312 311 311 311 311 311 311 311 311 310 310
324 326 327 328 329 329 330 330 330 331 331 332 333 333 333 333 332 332 331 331 330 330 329 328 328 328 328 328 327 327 326 325 325 325 324 325 326 326 326 326 326 326 326 326 324 324 323 323 323 323 322 322 322 321 321 321 320 320 320 319 318 317 316 315 315 313 311 311 311 311 310 311 311 311 311 311 311 310 309 309 309 309 309 309 309
320 322 324 326 327 329 329 330 331 331 332 332 333 333 333 332 332 332 331 330 330 330 328 327 327 327 327 326 326 325 325 325 324 324 324 323 324 324 323 323 324 324 324 324 323 323 322 322 322 321 321 320 320 319 320 320 319 319 319 318 317 316 315 314 314 314 312 310 310 310 310 310 310 310 311 310 310 309 309 308 308 307 307 307 307
Wind_Speed
16 14 13 11 9 9 9 12 14 14 15 16 15 13 14 15 16 17 18 18 17 15 15 16 16 16 17 18 19 19 19 18 18 18 19 19 19 19 19 19 19 19 19 20 19 18 17 16 16 17 19 20 20 20 20 20 20 20 20 21 21 20 19 19 20 20 20 20 20 20 19 19 20 20 19 19 19 20 20 20 20 20 20 20 20
18 16 14 11 10 9 10 13 15 14 15 14 15 14 14 14 14 15 15 16 16 15 14 15 16 18 18 18 18 19 19 19 19 19 19 19 19 19 19 19 19 19 19 19 19 19 18 17 17 17 17 18 19 19 19 19 19 19 20 20 20 20 19 19 19 20 20 21 21 21 20 20 20 20 20 19 19 20 20 20 20 20 20 20 20
20 17 14 12 10 9 11 14 14 14 14 14 15 14 15 16 15 14 14 15 16 15 15 16 17 18 17 17 18 18 19 19 19 19 18 19 19 18 18 19 19 19 19 19 19 19 18 18 18 18 17 17 18 19 19 18 18 18 19 20 20 19 19 19 19 20 20 21 21 22 22 21 21 21 21 20 19 20 19 19 20 19 19 19 19
20 18 15 13 10 10 12 13 15 15 15 15 14 14 15 16 14 12 13 15 16 16 16 17 18 18 17 17 18 18 18 18 19 19 18 18 18 18 18 18 19 19 19 19 19 18 18 19 18 18 18 18 19 20 19 19 18 18 18 19 19 18 18 19 19 19 20 20 21 22 22 21 21 20 20 19 19 19 19 18 18 18 17 17 17
21 18 16 13 11 11 12 13 15 16 16 15 14 13 14 15 14 12 13 15 16 16 17 17 17 17 17 17 18 17 17 17 18 19 18 18 18 18 18 18 18 18 18 18 18 18 18 18 18 18 18 20 21 21 19 18 18 18 17 18 18 18 18 18 18 19 20 21 22 22 21 20 20 19 18 17 17 17 17 16 16 16 16 16 15
21 19 16 14 12 11 12 13 15 18 17 15 14 13 13 14 14 14 14 15 16 16 16 17 17 17 17 17 16 17 17 16 17 18 18 17 17 17 17 17 17 18 18 18 17 17 17 17 18 18 19 21 21 20 18 17 18 18 18 18 18 19 19 19 19 20 20 21 21 21 20 19 19 18 17 16 15 15 15 14 14 14 14 14 14
21 19 16 14 12 12 12 13 17 19 17 15 15 13 12 13 13 14 16 16 15 16 16 16 16 16 16 16 16 16 16 15 16 17 17 17 16 16 17 17 17 17 17 17 17 16 17 17 18 18 18 20 20 20 18 17 18 18 18 18 18 18 19 19 19 19 19 18 19 19 19 19 19 17 16 15 14 13 13 13 13 13 13 14 14
20 19 16 15 13 13 12 14 19 18 15 16 16 13 11 11 11 15 17 16 15 16 16 16 16 16 14 15 16 16 16 15 15 17 17 17 17 16 16 16 16 17 17 17 17 17 17 17 18 17 18 19 19 19 18 18 18 18 19 18 18 17 17 17 17 17 18 18 18 19 19 19 18 16 14 13 12 12 13 13 12 12 13 14 14
21 19 17 15 13 13 13 15 19 18 16 15 14 12 10 11 11 15 18 15 15 15 15 15 16 16 15 15 15 15 15 15 16 16 16 17 16 16 16 16 16 17 16 16 16 17 17 17 17 17 17 18 19 19 19 18 17 18 18 17 17 16 16 15 15 16 17 18 18 18 17 16 16 14 12 11 12 12 14 14 13 12 12 13 13
21 19 17 15 14 13 13 15 17 19 17 14 14 12 10 11 12 15 18 15 14 14 15 15 15 15 15 15 15 15 15 15 15 16 16 15 15 16 16 16 16 16 16 16 15 15 16 16 16 16 17 17 18 19 18 18 17 16 16 15 15 14 14 14 14 15 16 16 16 16 15 15 15 14 12 11 11 12 13 14 13 12 11 12 12
21 19 17 16 15 13 13 14 15 18 17 14 14 12 10 11 11 14 17 15 14 14 14 15 15 15 15 15 15 15 15 15 16 16 15 15 15 15 15 15 15 15 15 15 14 14 14 14 15 15 16 17 18 18 18 18 17 16 15 13 12 12 12 12 13 14 14 14 14 13 13 14 14 13 11 11 11 11 11 11 11 11 11 12 12
21 20 17 16 15 14 14 14 14 16 17 16 15 12 10 11 11 13 15 14 14 14 14 14 15 15 14 14 14 14 13 14 15 15 15 14 14 15 15 15 15 14 14 14 14 13 13 13 14 14 15 17 17 16 16 16 16 15 14 13 11 11 11 11 12 12 12 11 11 10 10 12 13 11 11 10 9 10 11 11 11 10 10 11 11
22 20 18 17 15 14 13 14 14 15 17 18 17 14 11 11 11 12 14 13 12 13 15 14 14 14 14 14 14 13 12 13 14 14 14 13 14 14 14 15 14 14 14 13 13 13 12 12 12 13 15 16 15 15 15 15 15 15 14 12 11 10 10 10 10 10 9 9 9 9 11 13 12 10 9 9 9 9 10 10 10 10 9 10 10
23 21 18 17 16 14 13 13 14 15 16 18 19 16 13 12 11 11 11 11 10 12 14 14 13 13 14 14 14 13 13 13 14 13 13 13 13 13 14 14 14 14 13 13 12 12 12 11 12 14 15 14 15 14 14 14 14 14 14 12 11 9 8 8 8 9 9 8 8 9 12 12 10 9 9 10 9 9 9 9 9 9 9 9 9
21 21 19 17 16 14 13 13 14 14 15 17 18 16 15 14 13 12 11 10 10 10 12 13 13 13 13 14 13 13 14 14 14 13 12 12 12 12 13 13 13 12 12 12 12 11 11 11 12 14 14 13 14 14 13 12 12 13 12 10 9 7 6 7 7 8 9 8 6 6 10 11 10 9 9 10 10 9 9 9 9 9 9 8 8
18 20 19 18 17 15 14 13 13 14 14 15 16 15 15 15 15 13 11 10 10 10 11 13 13 13 13 13 13 13 14 13 13 12 10 11 12 12 12 13 13 12 12 11 11 11 11 11 13 15 14 13 13 13 13 12 11 11 10 9 7 6 6 6 6 7 8 8 6 6 8 10 9 9 9 9 9 9 9 8 8 8 8 8 7
18 19 19 18 17 16 14 13 13 13 13 13 13 13 13 13 13 12 10 9 9 9 11 13 14 13 12 12 12 13 13 12 12 11 9 11 12 12 12 12 12 12 12 12 11 11 11 11 13 14 14 14 14 13 12 12 11 10 9 8 7 6 5 5 6 6 8 8 7 6 7 9 9 9 8 9 9 9 8 8 8 7 7 7 6
19 19 19 18 18 16 15 14 14 13 13 13 12 12 11 12 11 10 9 8 8 9 10 13 14 13 13 11 12 14 13 12 11 9 8 10 10 11 11 11 11 11 11 11 11 11 11 12 13 13 13 13 13 12 11 11 10 9 8 6 6 6 5 4 5 6 7 7 7 6 8 8 8 8 8 8 8 8 8 8 7 7 7 6 6
20 20 19 18 18 17 15 15 14 14 13 13 12 11 11 11 11 10 9 8 8 8 9 11 13 13 13 12 12 13 12 11 10 9 8 9 9 9 9 9 9 9 10 10 10 11 12 12 12 11 11 11 11 11 10 10 8 8 7 5 5 5 4 4 4 5 5 6 5 6 8 8 7 7 7 7 7 7 7 7 6 6 6 6 6
20 20 20 19 18 18 17 15 15 14 14 13 12 12 11 11 11 10 10 9 8 8 9 10 11 12 11 12 12 12 11 10 10 9 8 8 7 6 7 7 7 8 9 9 10 11 12 11 11 10 10 9 9 9 9 9 8 7 6 4 4 4 3 3 3 4 4 5 4 5 7 6 5 6 6 5 5 5 5 5 5 5 5 6 5
21 21 20 20 19 19 18 16 15 15 14 14 13 13 12 12 11 11 10 10 9 9 9 10 11 12 11 11 11 11 10 9 9 9 8 7 5 5 5 6 7 7 7 8 9 9 10 10 9 9 8 8 7 7 7 7 7 6 6 4 2 2 3 2 3 3 4 4 3 3 4 4 4 5 4 4 4 4 4 4 4 4 3 3 2
24 22 20 21 21 20 19 18 17 16 15 15 15 14 13 13 12 12 11 10 10 9 9 10 11 12 12 12 11 11 9 9 9 8 7 6 5 4 4 6 6 6 6 6 7 8 9 9 8 8 8 8 7 7 6 6 6 5 5 3 1 0 1 1 3 3 3 3 2 1 1 3 4 3 3 2 2 2 3 3 2 2 1 2 2
26 24 22 22 22 21 20 19 19 17 16 16 15 15 15 14 13 12 12 11 10 10 9 9 10 11 12 13 12 11 9 8 8 8 6 5 4 4 4 4 4 5 5 5 6 7 7 7 7 7 8 8 8 8 6 6 6 5 4 2 1 2 2 2 3 4 3 2 2 1 0 2 2 0 2 1 1 1 2 2 1 1 1 2 2
28 25 23 22 22 22 21 20 20 19 18 17 16 16 16 15 14 13 12 12 11 10 10 9 10 10 11 13 12 11 9 8 8 7 6 6 5 5 4 3 3 3 3 5 5 5 6 6 6 6 6 6 7 7 7 6 6 5 3 2 2 2 3 4 5 5 4 3 3 2 2 1 2 1 2 1 2 3 2 2 3 2 2 2 2
28 25 23 22 22 22 21 20 20 20 19 19 18 18 17 16 15 14 13 12 12 11 11 10 10 11 12 12 12 11 10 9 7 6 6 6 6 5 5 4 3 2 3 5 5 5 4 4 4 3 3 3 4 5 6 6 6 5 4 3 3 3 4 5 6 7 6 5 5 4 4 3 2 2 3 3 4 5 4 2 4 4 4 2 3
26 26 25 24 23 22 21 20 21 21 20 20 19 18 18 18 17 16 15 14 13 12 12 12 12 12 12 12 12 11 11 9 7 6 6 6 6 6 5 5 4 3 4 4 5 5 4 3 3 2 1 1 1 2 3 4 5 5 5 5 4 4 5 7 8 8 8 7 7 6 6 5 5 5 4 4 5 8 7 5 6 5 5 4 5
28 27 26 24 24 23 21 20 21 21 21 20 19 19 19 18 17 17 16 16 15 14 13 13 13 14 13 13 13 12 11 11 9 8 7 7 7 7 5 5 5 5 5 4 4 3 3 3 3 3 3 3 3 3 3 3 4 5 6 6 6 6 6 8 9 9 9 9 9 9 8 8 9 8 7 7 7 8 9 8 9 7 6 8 8
29 29 28 26 25 24 23 22 21 21 22 21 20 19 19 18 18 18 17 17 16 16 15 14 15 16 15 14 13 12 12 11 10 10 9 8 8 8 7 5 5 6 6 5 4 4 3 3 3 5 5 6 5 5 5 5 6 7 8 8 8 8 8 10 11 11 10 11 11 11 10 9 10 10 10 9 8 9 10 10 12 10 8 10 11
30 30 30 28 26 25 25 25 23 23 22 22 21 20 20 19 19 19 18 18 17 16 15 15 15 17 17 16 14 14 13 12 11 11 11 10 9 10 10 7 6 6 7 7 6 5 5 5 5 6 7 7 7 7 7 7 8 10 11 11 11 10 10 10 12 13 13 12 13 13 12 12 12 12 12 12 11 11 11 11 13 13 12 12 12
31 30 31 31 29 27 27 28 26 25 24 23 23 22 21 21 21 21 20 19 18 17 15 16 15 16 17 16 16 15 14 12 11 12 13 12 9 10 11 10 8 8 9 9 8 7 7 8 8 8 8 9 8 8 9 9 10 10 11 12 13 13 13 12 12 13 14 15 15 15 14 14 14 14 13 14 14 14 13 13 14 15 15 15 14
31 30 30 31 32 29 28 30 29 27 26 25 25 24 23 22 22 21 21 20 18 17 17 16 16 16 15 15 16 16 15 14 12 12 13 12 10 11 11 11 10 10 10 10 10 10 10 10 10 10 10 10 9 9 10 11 11 10 10 11 12 13 15 15 14 15 15 16 17 17 16 16 17 16 16 15 16 17 16 16 16 16 17 17 17
31 32 30 30 33 32 29 30 30 29 28 28 27 26 25 24 22 21 22 20 18 18 18 17 17 17 16 15 16 16 17 16 15 13 13 13 12 11 11 12 12 11 12 12 12 12 12 13 13 13 13 12 11 11 11 12 13 12 12 12 12 13 14 14 15 16 17 18 19 19 19 18 19 19 18 18 17 18 19 19 18 18 19 19 20
32 32 30 30 32 33 32 31 30 30 30 30 28 28 27 25 24 23 22 21 20 21 20 19 19 18 18 18 17 17 17 17 16 15 14 14 14 14 13 13 12 12 13 13 13 13 14 14 14 15 15 14 14 14 14 15 15 14 14 15 15 16 16 16 16 17 18 19 20 21 21 20 21 21 21 21 21 21 21 22 22 22 21 22 22
33 33 33 32 32 32 33 33 31 32 31 31 30 29 28 27 26 24 23 22 22 23 22 21 20 19 19 20 20 19 18 17 17 17 17 15 15 17 17 15 13 12 13 14 14 14 15 16 16 16 17 16 16 16 16 17 17 17 17 17 18 19 19 19 19 19 20 20 21 22 23 22 23 23 23 23 24 24 23 24 25 25 25 25 25
34 34 35 34 33 33 33 34 34 33 33 32 31 30 29 28 27 25 25 24 23 23 23 23 22 21 21 21 21 21 19 19 18 18 19 18 16 16 18 18 16 14 14 14 14 15 16 16 17 17 18 18 18 18 18 19 19 19 19 20 21 21 21 22 23 22 22 22 21 22 23 24 25 25 25 25 26 26 26 27 27 28 28 28 28
36 36 37 35 35 34 33 34 35 35 35 34 33 31 29 29 28 27 26 25 25 25 24 24 23 23 23 23 23 22 21 20 19 18 18 20 20 17 16 17 18 17 16 15 14 15 16 16 16 18 19 20 20 20 20 20 21 21 21 21 21 22 22 23 23 23 22 22 23 23 23 25 26 26 27 27 28 28 28 29 30 30 30 31 31
36 37 37 36 36 36 36 35 35 35 35 34 34 33 31 29 29 28 27 27 26 27 26 25 25 24 24 24 24 23 22 21 21 20 18 19 20 20 17 14 16 18 18 17 16 16 17 17 17 19 20 21 20 20 20 22 22 23 22 22 23 22 22 22 23 23 22 23 24 25 25 25 26 26 27 28 29 30 31 31 32 33 32 33 33
34 35 35 37 37 37 37 36 35 34 34 34 33 33 31 30 30 30 29 28 28 27 27 26 26 26 26 25 25 24 23 21 21 21 20 19 19 19 18 16 15 16 16 17 16 17 19 19 20 21 21 21 21 21 22 22 22 22 23 23 23 23 23 23 24 23 24 25 26 27 27 27 27 28 28 29 31 32 33 34 34 35 35 36 35
35 34 34 35 37 37 37 37 36 35 35 34 33 32 31 30 30 29 29 29 29 28 27 27 27 26 26 26 26 25 24 22 22 22 21 21 20 19 18 18 18 17 17 19 19 19 19 19 21 22 22 22 22 23 22 21 20 21 21 23 24 25 25 25 26 26 26 27 28 29 30 30 30 30 31 31 33 33 33 33 33 34 35 36 37
36 36 34 33 35 37 37 37 37 36 36 35 34 33 31 31 31 30 30 31 30 30 29 28 27 27 26 25 25 25 25 24 23 23 23 22 22 21 19 18 18 19 21 22 22 22 21 20 21 22 23 24 24 24 21 19 19 20 22 24 25 24 25 25 26 27 28 29 29 31 32 32 31 31 31 30 30 30 29 28 27 28 30 31 33
35 36 35 34 35 36 38 38 38 38 37 37 36 35 34 33 32 33 34 33 31 30 30 30 28 27 25 25 25 25 25 24 23 23 23 22 22 22 22 20 20 21 23 24 24 25 25 23 21 21 23 23 23 23 20 18 17 18 21 23 25 25 24 22 23 25 26 25 25 26 27 27 27 24 22 23 24 24 23 23 23 25 26 28 29
35 37 37 37 36 36 38 39 39 39 39 38 38 38 37 36 35 35 36 35 33 32 32 31 29 27 25 24 24 24 24 23 22 22 22 22 22 21 21 21 20 21 22 23 23 25 24 21 20 22 24 24 24 23 19 15 14 14 14 14 18 21 19 17 19 19 17 17 19 20 21 20 19 17 18 21 22 22 22 22 23 25 26 27 28
36 37 38 39 37 36 37 38 38 39 39 39 39 39 39 38 37 35 35 34 33 33 32 30 28 27 25 23 23 23 22 22 21 20 20 21 21 21 21 21 19 17 18 20 20 21 20 19 20 23 25 24 22 21 19 17 16 13 8 6 6 9 11 11 12 14 14 16 17 15 17 17 16 17 21 24 24 23 23 23 25 28 28 29 29
35 36 37 38 38 38 38 38 38 39 39 39 39 39 38 36 35 34 32 31 31 30 29 29 29 28 27 25 23 22 22 21 19 19 19 20 20 21 20 21 19 16 18 21 22 22 21 19 18 22 24 21 19 20 20 19 19 13 5 2 1 2 5 6 9 16 15 11 11 13 15 16 18 22 24 25 25 24 24 25 28 30 31 31 30
35 37 38 38 39 40 40 40 39 40 40 40 39 38 36 35 33 31 29 28 28 27 27 29 30 29 28 27 24 22 21 21 20 19 19 19 20 20 19 20 20 17 19 23 23 23 22 19 17 18 19 18 19 21 21 20 20 17 10 4 2 1 3 4 10 15 11 8 14 17 15 17 22 26 26 26 26 25 27 29 31 32 32 32 31
35 38 39 40 39 40 41 41 40 40 40 40 40 38 37 36 34 32 30 29 28 29 30 31 30 29 28 25 23 21 21 21 20 18 18 17 18 19 19 20 20 18 16 17 19 21 22 21 17 15 17 19 21 21 21 21 17 15 14 12 11 9 8 7 6 6 12 18 17 13 17 24 27 26 25 26 27 28 30 32 34 34 33 33 32
37 38 38 39 39 39 39 40 40 40 40 40 39 39 37 36 36 35 35 33 31 31 31 29 27 27 25 23 21 21 20 19 18 16 16 16 15 16 17 18 17 15 14 15 19 21 21 21 18 15 16 18 19 20 21 21 16 14 15 16 18 19 17 12 6 4 9 16 18 18 23 25 24 26 27 28 29 31 33 35 35 35 33 32 33
37 37 37 37 38 38 38 39 39 39 39 39 39 39 38 38 37 36 35 34 33 30 27 25 24 23 22 21 20 19 19 17 15 15 14 14 13 14 15 16 15 14 15 16 16 16 13 12 11 11 13 14 16 18 20 19 17 15 14 13 16 19 20 18 15 11 6 6 14 22 25 24 24 28 28 28 31 33 35 36 35 34 34 34 34
35 34 36 37 37 37 36 36 37 38 38 38 38 39 39 38 37 35 34 33 31 27 24 22 21 20 19 19 18 18 17 15 14 14 13 13 12 12 12 12 12 10 10 10 8 6 5 5 5 8 12 13 12 14 17 17 15 14 12 12 14 16 17 17 16 15 10 6 7 9 18 26 27 29 30 30 32 33 34 36 36 35 35 36 35
30 31 32 33 33 34 34 34 36 37 38 38 38 39 39 38 36 36 34 31 28 25 22 19 18 18 18 18 17 17 15 14 13 12 12 11 11 12 11 11 12 11 10 10 9 7 7 9 9 9 10 8 7 8 10 11 12 13 13 13 13 13 11 10 10 12 11 10 7 6 14 18 18 26 32 30 31 32 34 35 35 35 35 35 34
26 27 28 29 31 32 33 34 35 36 37 37 38 38 38 38 37 35 34 30 27 25 23 20 19 19 18 18 17 16 15 14 14 12 11 12 12 12 13 13 14 14 13 13 14 15 14 14 13 11 9 7 7 7 6 7 7 9 10 11 12 12 10 9 12 14 12 9 9 9 15 19 18 23 26 25 29 31 31 32 33 33 33 33 32
Wind_Direction
162 156 144 138 132 121 113 117 116 114 114 114 112 107 101 95 92 93 95 96 94 89 87 87 87 86 83 81 81 85 87 84 81 82 81 79 80 80 79 80 81 81 80 79 79 80 81 81 81 80 78 78 79 81 82 83 83 82 82 82 82 84 87 89 91 91 88 85 83 82 81 82 83 82 80 78 78 79 79 79 80 79 78 78 79
160 153 145 140 133 120 117 119 119 115 113 114 112 115 112 106 98 92 93 94 96 94 91 89 90 91 88 84 84 87 88 87 85 84 83 82 83 83 82 81 82 82 82 82 82 82 84 85 85 84 83 81 81 83 83 82 84 86 86 85 82 82 85 88 90 91 90 87 85 84 82 81 82 83 81 79 78 78 77 77 78 79 80 80 79
154 149 146 140 132 122 120 121 121 117 113 113 110 112 112 113 110 104 101 95 94 92 90 90 92 94 90 88 87 89 90 89 88 86 83 84 84 83 83 82 82 82 83 83 84 84 86 88 89 88 88 86 86 86 85 85 87 88 88 85 83 83 84 86 88 89 89 88 87 85 82 80 79 80 79 78 78 78 77 77 78 79 79 80 79
151 148 146 139 132 124 122 127 127 120 115 113 112 109 111 118 117 115 106 99 97 93 93 94 96 96 93 92 92 91 91 91 90 89 86 85 85 83 82 82 82 82 83 83 85 86 87 92 93 91 92 91 91 91 88 89 89 87 85 82 81 83 85 85 87 88 88 87 85 83 80 79 76 75 76 76 76 77 78 78 78 78 78 77 77
151 148 145 137 131 125 121 130 131 124 118 113 112 109 111 117 116 114 108 104 100 97 98 98 98 98 97 96 94 92 90 92 92 90 87 87 87 85 85 84 83 83 83 84 85 86 87 91 96 94 94 96 94 92 89 89 89 86 82 80 81 84 85 85 86 88 87 86 85 82 78 76 74 71 71 73 74 76 77 77 78 77 77 76 76
151 147 141 136 132 125 119 126 130 125 119 112 109 110 112 114 117 117 114 109 103 101 101 99 100 100 100 97 95 94 90 90 91 89 88 89 88 86 86 85 85 84 83 84 84 86 87 89 96 96 94 97 94 91 90 87 87 85 83 82 84 86 87 87 88 89 87 86 84 81 75 74 74 70 68 70 72 74 76 77 78 78 78 78 77
149 145 139 136 133 125 120 123 130 126 118 114 112 115 118 115 117 120 117 111 105 104 102 101 103 104 103 98 97 94 91 91 90 87 89 90 89 88 87 86 85 85 83 82 83 85 88 89 96 97 96 96 92 90 90 86 85 86 86 85 86 87 87 88 89 88 86 84 81 78 75 74 74 72 68 70 71 73 77 79 80 81 81 80 77
147 143 140 137 131 124 120 123 130 126 118 118 115 114 121 117 117 122 117 111 108 105 103 103 104 106 104 100 97 95 95 95 93 90 92 92 90 89 88 87 85 86 86 83 84 85 87 91 96 97 98 97 90 88 89 88 86 86 89 89 90 90 90 89 89 86 84 82 81 80 78 76 74 72 69 70 75 78 79 78 76 76 76 74 73
148 144 140 137 130 124 119 124 130 127 121 117 114 116 120 116 119 124 117 111 110 107 106 105 105 105 103 102 99 98 99 97 95 91 91 92 92 91 91 91 89 88 88 86 85 86 88 92 97 100 100 96 90 88 90 92 89 87 89 90 90 91 91 90 87 85 85 85 84 81 78 74 72 70 68 71 78 81 80 72 65 65 68 69 68
149 144 142 137 129 125 121 127 133 132 125 117 117 120 120 116 120 124 118 114 113 111 110 108 109 108 105 105 101 101 102 98 96 93 91 89 90 90 91 94 92 91 89 90 89 88 90 92 98 103 102 94 90 90 90 91 91 92 90 89 88 87 88 88 86 85 86 87 86 82 77 72 69 67 66 66 71 73 75 74 67 60 63 69 71
150 146 144 138 132 128 126 129 135 137 131 123 122 121 121 119 121 125 122 118 116 114 112 112 111 110 109 108 106 106 104 98 94 96 95 90 89 88 89 90 90 90 88 89 89 90 92 95 101 105 103 96 92 91 90 90 91 95 95 92 88 85 85 84 84 84 85 85 83 79 76 77 74 71 70 67 65 63 65 74 73 66 66 72 75
152 149 145 141 136 132 129 130 135 138 138 134 126 122 121 116 119 126 124 119 118 115 113 114 114 113 112 110 111 111 104 97 95 98 99 95 93 91 90 89 88 90 90 89 89 92 95 97 104 109 108 101 95 92 90 89 90 94 97 96 91 87 85 80 81 82 82 78 72 72 78 84 82 77 75 74 69 65 67 72 73 71 73 74 75
154 152 149 145 139 135 132 131 134 137 142 142 132 125 121 115 121 126 123 122 122 120 117 116 116 117 117 113 112 110 101 96 99 100 100 100 98 96 94 93 92 93 93 92 92 93 96 100 106 117 117 107 99 94 91 89 87 91 94 96 93 91 87 81 79 77 73 64 58 72 84 83 80 78 74 73 73 72 71 72 72 71 75 76 76
156 155 152 148 141 139 136 134 135 135 140 144 138 131 126 120 123 126 123 123 122 122 123 120 118 119 120 115 111 111 106 104 106 104 103 101 100 101 99 99 97 97 97 95 96 94 96 102 109 122 126 116 106 98 94 92 89 91 94 96 94 91 86 80 75 67 61 54 54 73 85 82 79 76 71 71 73 73 70 70 72 74 79 78 76
159 159 154 150 144 142 143 139 137 136 138 143 142 138 137 133 131 133 131 131 127 126 130 128 123 120 122 117 114 119 119 117 114 112 109 102 100 102 100 101 99 100 102 100 99 98 98 102 112 126 132 125 116 106 101 97 95 95 95 96 94 88 77 69 67 62 53 51 54 73 84 83 80 74 71 71 71 73 73 72 75 79 80 79 79
164 162 158 154 149 147 147 145 141 139 139 143 145 145 146 145 145 144 143 140 132 125 127 132 127 123 129 127 127 133 129 124 123 123 116 104 102 101 102 101 99 99 101 104 103 101 101 105 118 129 134 132 125 116 109 104 102 100 96 92 90 83 71 64 65 57 45 45 54 76 87 84 78 73 72 70 69 71 73 75 78 81 82 82 80
168 167 163 159 155 152 151 150 147 144 143 145 146 148 149 150 152 152 147 140 131 120 120 131 135 134 140 138 138 140 133 130 131 129 119 110 108 104 103 102 101 101 103 107 108 108 109 110 120 129 133 134 131 125 119 114 111 107 100 92 85 79 74 66 59 49 42 46 52 66 81 81 77 73 70 68 67 70 72 74 78 82 83 82 76
169 171 170 166 160 157 156 154 153 151 149 148 148 149 151 152 153 153 149 143 134 119 116 133 144 144 145 142 140 142 140 139 140 134 123 115 110 102 100 103 105 106 109 111 111 114 118 118 122 127 131 134 136 135 130 126 121 116 109 97 86 79 71 57 45 44 44 41 45 59 70 75 75 72 70 69 68 69 71 72 76 83 83 84 83
170 174 174 173 167 163 163 160 159 157 155 153 151 152 153 156 154 154 153 147 140 128 121 136 149 147 146 147 144 148 149 148 148 146 136 123 111 99 93 99 106 106 107 109 111 117 122 124 125 129 132 135 139 142 143 141 133 127 121 108 91 82 68 49 36 38 33 29 40 62 70 72 69 70 71 67 68 70 70 70 73 79 83 88 89
171 177 177 178 174 170 170 166 165 161 160 159 157 159 158 159 158 156 154 149 145 140 134 138 152 153 151 152 151 153 152 151 153 152 146 135 120 101 91 97 105 107 104 105 109 117 123 128 131 135 137 139 142 146 152 151 147 142 137 122 93 82 72 47 27 22 20 28 48 77 84 86 73 66 65 62 64 68 68 69 71 77 88 89 82
172 179 181 182 181 179 177 173 171 167 166 165 165 166 165 165 162 158 156 154 150 145 145 145 154 161 161 161 160 159 156 156 157 157 154 146 134 112 102 102 105 106 104 104 106 111 120 126 133 138 142 141 143 150 158 160 158 154 151 145 108 74 72 41 6 5 14 29 52 83 103 113 90 66 56 57 52 57 66 66 69 73 86 78 49
173 178 184 187 186 185 183 180 177 175 174 172 172 171 172 171 167 164 160 159 157 151 149 151 157 162 166 168 167 166 165 166 167 168 164 158 149 133 121 111 107 109 111 111 108 110 116 123 128 133 135 131 130 141 156 167 168 166 168 167 171 340 38 5 337 345 356 13 34 41 83 91 85 66 44 47 33 45 60 53 61 62 46 22 4
175 178 183 188 190 190 188 187 184 181 181 179 178 178 179 177 174 172 168 167 164 161 157 156 161 162 165 168 169 171 172 174 176 178 178 176 173 168 158 132 118 117 123 127 121 119 120 123 126 126 128 123 118 121 134 157 168 169 175 184 203 280 307 314 314 322 331 337 345 318 300 85 105 41 21 27 331 342 29 13 342 18 336 322 336
179 180 182 185 191 192 192 194 190 187 186 185 186 185 185 183 182 179 177 176 173 171 169 165 165 163 163 164 167 169 173 179 183 188 194 197 199 200 199 186 153 137 147 153 145 138 133 133 134 131 131 125 119 117 123 140 158 164 176 210 240 278 289 298 300 305 313 310 311 281 252 174 173 308 332 302 299 296 332 317 291 304 286 298 291
181 182 184 186 191 193 193 194 195 194 190 190 191 190 190 189 188 187 186 185 183 181 178 177 174 171 169 167 169 169 171 177 186 197 203 212 217 217 222 225 219 203 177 169 165 159 153 153 152 144 141 140 134 131 135 144 162 177 195 225 258 271 279 290 288 295 306 304 305 279 256 240 211 266 288 280 288 280 295 288 265 276 265 279 280
181 184 189 191 194 194 194 194 196 199 196 194 193 193 194 194 193 191 192 192 193 192 188 186 184 183 180 179 180 179 179 180 192 209 216 225 228 229 234 234 233 208 174 172 176 169 169 182 192 196 206 216 195 179 176 176 182 198 216 232 257 263 272 285 282 288 299 299 302 292 263 253 256 258 256 266 275 274 283 256 246 277 261 251 274
183 189 192 195 199 197 198 198 196 200 203 198 196 197 198 199 198 196 197 196 197 198 198 195 191 191 189 191 193 192 194 193 202 221 230 235 235 231 227 223 219 202 187 187 198 199 194 201 232 245 251 252 253 259 253 243 236 241 243 247 256 258 267 277 277 277 286 291 293 293 275 260 264 263 253 255 262 267 272 255 254 283 273 258 279
189 192 193 196 201 201 201 203 202 204 207 203 201 204 204 205 203 202 201 199 201 200 201 201 196 196 196 199 201 201 203 202 211 228 238 242 239 230 222 222 219 212 215 217 220 234 238 242 260 264 267 262 257 259 262 265 265 266 266 264 262 260 263 269 270 266 272 280 282 286 282 272 266 262 256 253 258 262 268 265 258 265 271 269 278
194 195 195 197 201 203 204 206 207 209 211 208 206 209 210 209 207 207 203 201 205 203 200 203 200 198 199 204 208 208 207 208 221 232 238 243 240 231 227 230 233 230 232 236 241 255 267 272 276 278 279 273 269 269 267 264 261 261 262 263 263 263 265 265 265 265 268 273 277 280 281 280 273 266 261 255 256 259 266 270 261 256 262 266 267
199 199 199 200 200 204 207 208 209 211 213 212 211 211 211 211 210 209 206 204 208 208 203 206 205 200 200 207 214 216 213 216 230 235 236 242 242 236 235 235 238 240 242 248 254 265 277 280 280 285 287 282 280 283 282 276 266 261 259 260 262 264 267 267 264 265 269 271 273 277 279 280 279 274 267 259 256 255 260 267 268 263 260 259 257
203 204 204 204 203 204 208 210 211 213 214 215 215 214 213 212 211 211 210 207 209 210 208 210 211 208 204 207 215 221 219 219 228 236 239 241 243 242 245 244 242 243 246 253 258 265 274 277 279 284 287 284 283 285 285 283 280 276 271 268 265 264 267 269 268 267 268 270 270 273 276 278 280 279 274 267 260 257 258 261 268 270 264 259 257
206 208 207 206 206 206 208 211 211 214 214 215 217 216 216 215 215 215 214 212 212 213 214 215 217 216 213 212 217 222 223 223 225 232 239 240 242 246 250 249 250 250 250 254 257 262 269 273 276 278 280 280 279 280 281 283 285 285 283 282 279 274 272 271 272 272 271 271 269 270 272 274 276 278 278 274 268 264 262 261 264 269 268 265 265
209 210 210 208 208 208 210 212 212 213 215 215 216 217 218 219 219 220 219 217 216 218 219 220 222 221 219 219 222 224 227 230 229 230 235 240 244 245 248 250 253 254 253 257 258 260 263 266 270 271 275 276 277 280 279 280 283 284 283 283 283 282 280 276 274 274 274 273 271 270 271 272 273 276 277 275 273 271 269 267 265 268 268 268 271
209 209 211 211 211 210 211 213 214 215 216 217 218 219 219 220 222 223 223 222 220 221 222 224 226 224 223 224 226 228 230 234 236 235 234 240 245 244 246 248 253 257 255 256 257 259 260 262 266 270 273 273 275 278 277 277 279 281 283 282 282 282 282 279 277 276 275 274 272 271 271 271 273 274 275 276 276 275 273 271 270 271 271 270 272
208 208 211 213 212 212 212 214 215 217 217 218 220 221 221 221 222 223 223 224 223 224 225 226 228 228 227 227 228 231 233 235 239 241 239 239 243 245 246 245 250 257 256 257 262 264 263 264 267 269 272 271 273 275 274 276 278 278 281 282 281 281 281 279 279 278 277 276 272 270 270 271 272 273 274 276 276 277 276 275 273 272 272 272 274
210 210 212 213 213 213 213 214 214 217 218 219 221 222 223 223 223 223 225 226 226 227 228 229 231 231 230 231 233 234 236 237 238 244 246 243 243 245 247 247 245 247 254 259 263 268 269 270 275 277 274 272 272 274 276 280 281 281 283 284 283 283 281 280 279 279 280 279 274 272 271 271 272 273 274 276 277 278 277 278 277 275 273 273 274
211 212 213 212 212 212 212 213 214 216 218 219 221 221 223 224 224 225 226 228 229 231 232 233 234 234 234 236 237 237 239 240 239 243 247 247 248 249 250 249 244 244 252 257 260 268 268 268 276 280 275 272 272 276 282 285 285 285 287 287 287 286 285 284 283 283 282 280 277 277 276 276 276 275 275 276 278 280 280 279 279 278 276 274 273
213 213 214 214 213 212 212 213 214 216 217 218 219 220 222 224 225 226 227 229 232 234 235 236 237 237 238 239 240 240 241 243 242 241 243 246 249 253 255 254 250 249 251 256 262 266 262 263 271 273 271 271 274 278 284 288 287 287 287 288 289 289 289 288 286 284 282 280 281 280 280 280 278 276 277 278 279 280 281 281 281 279 278 276 275
214 215 215 215 214 213 212 213 214 215 216 217 218 219 221 222 223 225 227 229 231 233 235 236 238 239 240 241 241 242 242 243 243 242 245 246 245 250 255 257 258 258 258 259 263 262 259 263 268 270 271 272 273 277 281 287 288 287 288 288 289 290 289 290 288 285 282 281 283 284 283 281 279 278 279 280 282 282 283 285 285 284 282 279 277
215 216 216 215 215 214 212 212 213 214 214 215 216 217 217 218 219 220 223 225 228 230 233 236 238 240 242 242 243 243 243 243 244 244 245 246 247 249 252 256 259 257 258 259 259 261 261 262 266 272 274 271 271 273 276 282 285 286 286 286 287 288 289 291 289 286 283 283 285 286 285 283 282 282 283 284 285 286 288 290 292 292 291 288 284
215 216 216 216 215 215 213 212 212 213 213 213 213 214 213 213 214 216 220 223 225 229 232 235 237 239 241 243 244 244 245 245 245 245 245 246 249 252 252 254 256 254 257 260 261 264 262 260 265 274 274 270 271 274 273 274 275 278 282 286 289 289 289 291 291 288 284 285 288 290 290 289 288 289 291 293 293 293 293 295 299 301 300 299 296
215 215 215 216 215 214 214 213 213 212 213 215 215 215 215 215 216 218 221 224 227 229 232 233 235 237 239 242 244 244 245 246 247 248 249 250 251 252 253 254 257 256 258 262 265 268 266 263 267 274 276 273 272 273 272 267 260 263 278 291 297 295 292 297 297 291 287 290 295 296 296 295 296 301 305 302 299 296 294 295 298 301 302 302 300
216 215 216 216 214 213 213 214 214 213 215 216 216 217 219 220 221 223 224 227 229 231 233 235 235 236 238 240 242 243 244 245 247 249 251 254 255 256 255 254 255 256 259 262 264 267 265 264 268 275 277 272 268 271 270 266 258 259 277 289 303 312 305 304 299 291 295 302 303 304 302 299 299 307 308 304 300 297 294 296 299 301 302 301 300
215 215 215 215 214 214 214 214 214 216 217 218 219 220 221 221 223 226 228 229 229 231 234 236 236 236 238 238 240 242 243 244 246 247 250 253 256 258 257 257 259 261 262 258 257 260 257 258 268 277 276 265 263 271 272 269 263 258 263 267 271 345 302 308 315 306 304 305 308 309 304 300 303 308 307 303 301 299 298 299 301 302 302 300 300
213 215 215 214 214 214 215 216 216 216 218 219 220 220 219 218 218 220 224 226 228 230 231 231 231 233 235 236 237 239 242 244 245 245 248 251 254 257 258 258 257 256 260 260 259 259 257 258 268 277 276 267 266 272 274 273 265 255 248 250 294 314 262 307 323 313 305 298 303 304 301 304 307 307 306 304 304 303 303 303 303 303 301 299 299
214 215 216 216 215 215 216 216 216 217 218 220 220 218 217 215 213 212 214 217 221 224 225 227 227 228 231 232 234 238 241 243 243 245 246 248 253 257 258 258 252 248 260 272 272 268 262 259 263 271 276 275 271 268 271 271 265 258 254 255 266 265 264 291 315 310 307 306 304 298 300 308 310 309 308 308 308 307 306 305 304 304 303 300 299
216 217 217 217 217 217 217 217 217 217 218 219 219 217 216 215 214 214 215 215 218 222 224 227 228 229 230 230 232 236 239 240 241 242 240 242 249 256 259 263 262 261 268 277 280 280 271 259 255 262 275 280 272 265 269 271 264 262 265 266 266 265 267 277 284 290 307 307 302 299 302 309 314 313 311 310 310 309 308 306 306 306 304 303 303
216 216 216 217 218 218 219 218 218 218 218 217 217 217 216 216 216 217 218 219 221 224 224 227 230 231 230 229 230 230 229 231 234 235 236 239 243 247 249 251 253 256 256 261 272 277 273 260 255 271 293 296 283 271 271 272 264 260 271 281 278 274 272 270 272 275 280 297 303 305 307 310 312 311 310 310 309 309 308 308 308 307 306 305 305
215 216 217 218 219 219 220 220 219 219 218 218 218 218 218 219 218 218 219 221 223 224 226 228 228 226 223 219 218 218 219 222 228 234 237 234 231 229 229 229 234 240 238 243 257 256 255 276 294 302 302 303 298 284 276 274 268 264 282 301 295 290 284 277 277 278 274 279 293 300 305 309 312 310 309 310 310 311 310 309 308 307 307 307 308
214 217 218 218 218 218 218 219 220 220 219 219 219 219 219 219 220 219 219 219 219 221 222 221 215 210 207 205 207 211 214 217 220 225 227 223 220 223 226 230 236 245 247 248 262 273 281 296 302 298 292 299 313 305 295 293 286 282 295 306 299 293 290 288 295 296 284 276 273 277 294 302 305 304 307 309 310 310 309 308 309 309 309 310 311
216 218 218 218 218 218 217 218 220 220 219 219 219 219 219 219 220 220 219 217 216 215 213 206 201 200 200 202 206 210 212 214 213 213 217 224 231 239 246 247 245 246 249 252 260 271 278 285 288 284 281 291 303 308 316 319 313 307 310 313 307 304 308 309 311 309 300 288 288 289 293 296 293 294 300 305 306 305 305 307 308 310 311 312 312